Location: *
(1.3500°S, 147.5000°W)
Time: 21:51:00
(UTC+00:00)

Cosmos 1190 Rocket - Pass Details

Date: 07 April 2020
Orbit: 757 x 779 km, 74.1° (Epoch: 02 June)

Event Time Altitude Azimuth Distance (km) Brightness Sun altitude
Rises 04:33:51 0° 181° (S) 3,258 7.2 -10.5°
Reaches altitude 10° 04:36:20 10° 175° (S) 2,330 6.4 -11.1°
Maximum altitude 04:41:24 46° 102° (ESE) 1,034 4.2 -12.4°
Drops below altitude 10° 04:46:26 10° 30° (NNE) 2,321 6.3 -13.6°
Sets 04:48:53 0° 24° (NNE) 3,244 7.1 -14.3°
